Location: Newark
(47.5333°N, 8.7000°E)
Time: 15:12:12
(UTC+00:00)

X-37B - Visible Passes

Search period start: 29 September 2020 00:00
Search period end: 09 October 2020 00:00
Orbit: 386 x 387 km, 45.0° (Epoch: 18 September)

Date Brightness Start Highest point End Pass type
(mag) Time Alt. Az. Time Alt. Az. Time Alt. Az.
02 Oct 3.4 19:10:41 10° SW 19:10:54 11° SSW 19:10:54 11° SSW visible
03 Oct 2.4 18:12:48 10° SSW 18:14:59 17° SSE 18:15:15 17° SE visible
04 Oct 2.0 18:49:45 10° SW 18:51:46 28° SSW 18:51:46 28° SSW visible
05 Oct 2.0 17:51:34 10° SW 17:54:15 25° SSE 17:55:54 17° ESE visible
05 Oct 3.4 19:27:26 10° WSW 19:28:11 16° WSW 19:28:11 16° WSW visible
06 Oct 1.0 18:28:59 10° WSW 18:32:02 45° S 18:32:15 44° SSE visible
07 Oct 1.6 17:30:38 10° SW 17:33:33 35° SSE 17:36:16 11° E visible
07 Oct 2.5 19:06:49 10° W 19:08:32 28° WSW 19:08:32 28° WSW visible
08 Oct 0.9 18:08:18 10° WSW 18:11:25 52° S 18:12:31 33° ESE visible
